Showing default

MBZ-SAT, 62626

Orbit data source: Space-Track

MBZ-SAT, 62626 is a payload satellite owned by Rashid Space Ctr (AE) in SSO that was launched on Tue, 14 Jan 2025 UTC via an FALCON 9 launch vehicle from the Air Force Western Test Range (AFWTR). Payload-class satellites include a variety of spacecraft equipped with specific instruments for various scientific and technological missions. These include communications satellites like Starlink; space stations such as the ISS; scientific satellites like the Hubble; Earth observation satellites from companies like Planet Labs, Umbra, and HawkEye 360; GPS; miniature CubeSats for education and research; and military/defense satellites.

Loading next visibility...
Identifier
62626, 2025-009T
Orbit
SSO
Country
Flag of AEAE / UAE
Related business
Manufacturer
Rashid Space Ctr
Mission
Operational Civil Imaging
Bus & Motor
MBZSAT, Unknown motor
Mass
750 kg wet, ~700 kg dry
Launch date (UTC)
2025-01-14 (2 years ago)
Launch vehicle
FALCON 9
Launch site
Air Force Western Test Range (AFWTR)
Object type
Payload
Rocket body
Debris
Shape & HBR
Hex Cyl + 4 Pan, 2.3 m
Radar Cross Section
14.173 m², Large (>1 m²)

Expand to show TLE details & history
Last TLE update: 9 hours ago

TLE from 9 hours ago
0 MBZ-SAT
1 62626U 25009T   26238.17969731  .00000844  00000-0  45006-4 0  9997
2 62626  97.3930 314.8580 0007138  99.4319 260.7722 15.17802595 89307
Epoch: 2026-08-26T04:18Z
TLE epoch observation values (Epoch: 2026-08-26T04:18:45.847Z)
Latitude
-0.00005°
Longitude
-84.26943°
Altitude
516.363 km
Speed
7.605 km/s
True Right ascension
20h 59m 25s
True Declination
0° 00' 00"
Sunlit
Object was in full shadow at epoch
Visualization orbit readout
Latitude
Unknown
Longitude
Unknown
Altitude
Unknown
Speed
Unknown
Apparent Right ascension
Unknown
Apparent Declination
Unknown
Sunlit
N/A
Visualization observer readout
Local Sidereal Time
04:38:12
Azimuth
Unknown
Elevation
Unknown
Doppler factor
Unknown
Orbital elements
Apogee altitude
514.368 km
Perigee altitude
504.535 km
Semi-major axis
6,887.588 km
Eccentricity
0.00071
Inclination
97.393°
RAAN
314.858°
Arg. of periapsis
99.4319°
True anomaly
260.69147°
Mean anomaly
260.7722°
Eccentric anomaly
260.73184°
Mean motion
3.79702 °/min
Orbital period
94.81 mins
BSTAR
0.000045006
Loading maneuver chart data...
Computing Atmospheric mass density...
Loading historical data...
Loading historical data...
Loading historical data...
Loading historical data...
Loading historical data...
Loading historical data...
Loading historical data...

Documentation

Showing up to 5 results
|